Total_Precipitation_Accumulation
0.26 0.26 0.23 0.18 0.17 0.17 0.20 0.26 0.42 0.62 0.91 1.20 1.37 1.53 1.67 1.68 1.53 1.38 1.31 1.20 1.07 1.05 1.01 0.91 0.90 0.84 0.78 0.71 0.66 0.60 0.57 0.56 0.58 0.60 0.60 0.59 0.59 0.58 0.56 0.54 0.50 0.49 0.49 0.47
0.25 0.24 0.26 0.23 0.21 0.19 0.25 0.32 0.46 0.71 1.08 1.36 1.46 1.53 1.62 1.64 1.52 1.45 1.42 1.38 1.37 1.39 1.37 1.22 1.07 0.98 0.89 0.80 0.74 0.68 0.68 0.68 0.66 0.63 0.60 0.60 0.59 0.59 0.60 0.58 0.54 0.48 0.45 0.45
0.29 0.21 0.32 0.50 0.38 0.33 0.38 0.44 0.58 0.83 1.04 1.17 1.33 1.50 1.52 1.50 1.53 1.55 1.62 1.67 1.67 1.58 1.49 1.34 1.21 1.13 1.04 0.94 0.88 0.85 0.83 0.77 0.70 0.62 0.59 0.57 0.52 0.55 0.59 0.57 0.52 0.47 0.42 0.43
0.37 0.39 0.68 0.65 0.39 0.39 0.53 0.63 0.66 0.73 0.79 0.97 1.21 1.32 1.33 1.39 1.53 1.61 1.62 1.60 1.58 1.47 1.36 1.28 1.25 1.19 1.08 0.97 0.92 0.87 0.83 0.76 0.65 0.57 0.56 0.56 0.56 0.57 0.55 0.52 0.49 0.48 0.46 0.45
0.47 0.66 0.75 0.75 0.48 0.44 0.62 0.82 0.66 0.71 0.74 0.86 0.96 1.11 1.35 1.42 1.50 1.60 1.55 1.50 1.52 1.50 1.41 1.35 1.30 1.18 1.10 1.04 0.94 0.89 0.82 0.68 0.55 0.48 0.49 0.51 0.51 0.50 0.49 0.49 0.47 0.43 0.39 0.41
0.60 0.78 0.91 0.84 0.45 0.34 0.62 1.13 0.82 0.80 0.81 0.83 0.92 1.18 1.29 1.28 1.25 1.29 1.31 1.37 1.47 1.58 1.60 1.52 1.38 1.14 1.05 1.00 0.88 0.77 0.65 0.54 0.48 0.44 0.41 0.39 0.39 0.43 0.44 0.45 0.42 0.36 0.32 0.34
0.73 0.97 1.04 0.54 0.28 0.41 0.90 1.10 0.89 0.86 0.87 0.86 0.97 1.07 0.95 0.95 1.08 1.18 1.29 1.36 1.42 1.47 1.45 1.38 1.25 1.08 1.01 0.93 0.79 0.61 0.49 0.44 0.44 0.39 0.32 0.29 0.34 0.39 0.40 0.36 0.36 0.35 0.35 0.32
0.83 1.05 1.14 0.50 0.34 0.57 0.71 0.61 0.58 0.62 0.66 0.69 0.75 0.80 0.85 0.88 0.96 1.04 1.16 1.25 1.24 1.23 1.19 1.08 0.97 0.91 0.90 0.82 0.62 0.46 0.41 0.39 0.37 0.31 0.19 0.19 0.29 0.32 0.31 0.34 0.33 0.31 0.32 0.30
0.94 1.09 0.79 0.44 0.41 0.41 0.46 0.46 0.45 0.51 0.54 0.57 0.61 0.70 0.83 0.94 1.00 1.00 0.99 1.02 0.98 0.90 0.85 0.83 0.78 0.74 0.71 0.60 0.46 0.40 0.39 0.40 0.36 0.29 0.23 0.20 0.23 0.26 0.26 0.28 0.25 0.22 0.24 0.25
0.81 0.87 0.62 0.42 0.35 0.35 0.34 0.34 0.37 0.47 0.52 0.50 0.51 0.54 0.63 0.73 0.80 0.84 0.83 0.79 0.73 0.67 0.63 0.62 0.58 0.55 0.51 0.40 0.37 0.40 0.42 0.40 0.38 0.36 0.29 0.21 0.20 0.16 0.17 0.20 0.21 0.21 0.22 0.23
0.90 0.89 0.70 0.55 0.41 0.34 0.33 0.34 0.39 0.45 0.43 0.41 0.37 0.39 0.44 0.53 0.58 0.61 0.59 0.56 0.52 0.51 0.47 0.42 0.38 0.36 0.34 0.32 0.31 0.38 0.36 0.30 0.27 0.25 0.23 0.22 0.18 0.10 0.09 0.10 0.09 0.13 0.16 0.16
0.99 0.81 0.68 0.61 0.48 0.38 0.36 0.34 0.34 0.31 0.29 0.34 0.35 0.35 0.39 0.45 0.49 0.48 0.44 0.43 0.45 0.45 0.41 0.37 0.33 0.27 0.24 0.21 0.23 0.31 0.29 0.23 0.18 0.14 0.14 0.14 0.18 0.14 0.06 0.04 0.04 0.04 0.05 0.06
0.59 0.49 0.46 0.42 0.40 0.42 0.34 0.27 0.26 0.25 0.22 0.27 0.30 0.30 0.31 0.33 0.33 0.32 0.33 0.35 0.38 0.38 0.35 0.33 0.29 0.26 0.21 0.16 0.18 0.24 0.26 0.19 0.12 0.09 0.10 0.11 0.17 0.23 0.20 0.11 0.06 0.05 0.04 0.04
0.43 0.45 0.47 0.36 0.30 0.28 0.21 0.20 0.21 0.19 0.19 0.20 0.23 0.24 0.23 0.24 0.25 0.27 0.30 0.28 0.28 0.26 0.24 0.24 0.22 0.20 0.16 0.12 0.13 0.14 0.14 0.09 0.07 0.10 0.09 0.10 0.13 0.15 0.17 0.21 0.23 0.20 0.10 0.05
0.37 0.35 0.33 0.22 0.17 0.16 0.14 0.12 0.14 0.16 0.17 0.19 0.18 0.16 0.16 0.21 0.24 0.24 0.20 0.19 0.20 0.20 0.18 0.19 0.19 0.16 0.11 0.09 0.08 0.09 0.08 0.10 0.09 0.08 0.08 0.08 0.09 0.11 0.12 0.15 0.19 0.20 0.17 0.11
0.26 0.20 0.16 0.14 0.14 0.14 0.13 0.11 0.12 0.13 0.14 0.14 0.15 0.15 0.14 0.17 0.19 0.20 0.16 0.15 0.17 0.17 0.14 0.14 0.14 0.10 0.07 0.06 0.06 0.08 0.05 0.02 0.04 0.05 0.04 0.05 0.06 0.08 0.09 0.11 0.15 0.18 0.19 0.16
0.19 0.17 0.14 0.12 0.11 0.12 0.12 0.11 0.10 0.09 0.10 0.12 0.13 0.12 0.12 0.16 0.18 0.17 0.14 0.13 0.13 0.11 0.09 0.10 0.08 0.06 0.04 0.03 0.03 0.03 0.04 0.01 0.01 0.02 0.04 0.04 0.04 0.05 0.07 0.09 0.14 0.18 0.17 0.14
0.11 0.10 0.10 0.08 0.07 0.07 0.07 0.06 0.06 0.06 0.06 0.07 0.08 0.09 0.12 0.15 0.15 0.12 0.10 0.08 0.08 0.08 0.07 0.05 0.04 0.03 0.03 0.02 0.02 0.01 0.01 0.01 0.02 0.02 0.02 0.02 0.02 0.03 0.05 0.07 0.10 0.13 0.15 0.15
0.06 0.05 0.06 0.05 0.04 0.04 0.04 0.04 0.04 0.03 0.03 0.04 0.07 0.09 0.10 0.10 0.09 0.07 0.06 0.05 0.05 0.08 0.06 0.03 0.03 0.02 0.02 0.01 0.01 0.01 0.01 0.01 0.01 0.01 0.01 0.01 0.01 0.02 0.04 0.06 0.07 0.09 0.11 0.15
0.05 0.04 0.04 0.04 0.03 0.02 0.03 0.03 0.02 0.02 0.02 0.05 0.06 0.05 0.05 0.06 0.06 0.05 0.06 0.06 0.04 0.02 0.02 0.01 0.02 0.02 0.01 0.01 0.00 0.00 0.00 0.01 0.01 0.01 0.01 0.01 0.01 0.02 0.02 0.03 0.05 0.07 0.10 0.14
0.03 0.03 0.03 0.03 0.03 0.02 0.02 0.02 0.02 0.02 0.03 0.04 0.04 0.03 0.03 0.03 0.03 0.04 0.04 0.05 0.04 0.01 0.00 0.00 0.01 0.01 0.01 0.00 0.00 0.00 0.01 0.01 0.01 0.01 0.01 0.01 0.01 0.01 0.01 0.02 0.03 0.04 0.06 0.09
0.04 0.03 0.02 0.02 0.02 0.02 0.03 0.03 0.02 0.02 0.03 0.04 0.03 0.02 0.02 0.02 0.02 0.03 0.03 0.03 0.02 0.00 0.00 0.00 0.00 0.00 0.00 0.00 0.00 0.00 0.01 0.01 0.01 0.01 0.01 0.01 0.01 0.01 0.01 0.01 0.02 0.02 0.04 0.04
0.08 0.05 0.03 0.03 0.03 0.04 0.03 0.03 0.03 0.03 0.03 0.02 0.02 0.01 0.01 0.02 0.02 0.02 0.01 0.01 0.00 0.00 0.00 0.00 0.00 0.00 0.00 0.00 0.00 0.00 0.00 0.00 0.00 0.00 0.00 0.00 0.00 0.00 0.00 0.01 0.01 0.01 0.02 0.02
0.10 0.07 0.05 0.04 0.03 0.04 0.05 0.04 0.04 0.03 0.02 0.02 0.01 0.01 0.01 0.02 0.02 0.01 0.00 0.00 0.00 0.00 0.00 0.00 0.00 0.00 0.00 0.00 0.00 0.00 0.00 0.00 0.00 0.00 0.00 0.00 0.00 0.00 0.00 0.00 0.01 0.01 0.01 0.01
0.12 0.09 0.07 0.07 0.07 0.07 0.06 0.05 0.04 0.03 0.02 0.01 0.01 0.01 0.01 0.01 0.01 0.01 0.00 0.01 0.01 0.00 0.00 0.00 0.00 0.00 0.00 0.00 0.00 0.00 0.00 0.00 0.00 0.00 0.00 0.00 0.00 0.00 0.00 0.00 0.00 0.00 0.00 0.01
0.19 0.16 0.13 0.11 0.11 0.08 0.06 0.05 0.04 0.03 0.01 0.01 0.01 0.01 0.01 0.00 0.00 0.00 0.00 0.00 0.00 0.00 0.00 0.00 0.00 0.00 0.00 0.00 0.01 0.01 0.01 0.01 0.01 0.01 0.01 0.01 0.01 0.01 0.01 0.01 0.01 0.00 0.01 0.01
0.25 0.19 0.16 0.11 0.09 0.06 0.05 0.05 0.03 0.02 0.01 0.01 0.01 0.01 0.01 0.01 0.00 0.00 0.00 0.00 0.00 0.00 0.00 0.00 0.00 0.00 0.01 0.01 0.01 0.01 0.01 0.01 0.01 0.01 0.01 0.01 0.01 0.01 0.01 0.01 0.01 0.01 0.01 0.01